Погода в Западном

Россия / Челябинская область     55°06′47″N   61°16′28″E
темп.,
°C
ветер,
м/с
пор.,
м/с
влажн.,
%
обл.,
%
осадки,
мм/ч
давл.,
гПа
погр.,
м
15 апреля, чт
чт1523:00+10юз45655 0.0 102960
02:00+9юз35727 0.0 102869
05:00+7юз35735 0.0 102765
08:00+10зюз23725 0.0 102679
11:00+16зсз11635 0.0 1025339
14:00+19юз33435 0.0 10231053
17:00+20зюз443545 0.0 10221134
20:00+14зюз335475 0.0 102126
16 апреля, пт
пт1623:00+12сз11625 0.0 102110
02:00+10сз22680 0.0 102011
05:00+9зсз33710 0.0 102016
08:00+10с38729 0.0 1021278
11:00+8св7882100 0.0 1023606
14:00+7св6780100 0.0 1025643
17:00+6св4679100 0.0 1025609
20:00+6всв2383100 0.0 1025142
17 апреля, сб
сб1723:00+6св2383100 0.0 102570
02:00+5св2478100 0.0 102598
05:00+5всв2471100 0.0 102583
08:00+5св236687 0.0 1026217
11:00+8всв445174 0.0 1026976
14:00+10в21445 0.0 10251383
17:00+11ююз124475 0.0 10241584
20:00+9юз466589 0.0 1023325
18 апреля, вс
вс1823:00+5зюз37818 0.0 1022172
02:00+4зсз49785 0.0 1021192
05:00+3сз49750 0.0 1020193
08:00+4зсз611650 0.0 1019687
11:00+8сз8105176 0.0 10181621
14:00+6с8967100 0.1 10201114
17:00+4ссв81051100 0.5 10231613
20:00+2св7104674 0.0 10261305
19 апреля, пн
пн1923:00−1св69545 0.0 1029848
02:00−2св58460 0.0 1031822
05:00−3св57430 0.0 1033992
08:00−3св67385 0.0 10351366
11:00−1св56325 0.0 10351602
14:00+1св56301 0.0 10341739
17:00+2св56315 0.0 10341801
20:000всв23435 0.0 103543